Year,Month,Day,Hour,Minute,Value (Times are PST for temperature in C)
2011,07,09,00,00,13.00
2011,07,09,00,01,13.00
2011,07,09,00,02,13.00
2011,07,09,00,03,13.00
2011,07,09,00,04,13.00
2011,07,09,00,05,13.00
2011,07,09,00,06,13.00
2011,07,09,00,07,13.00
2011,07,09,00,08,13.00
2011,07,09,00,09,13.00
2011,07,09,00,10,13.00
2011,07,09,00,11,13.00
2011,07,09,00,12,13.00
2011,07,09,00,13,13.00
2011,07,09,00,14,13.00
2011,07,09,00,15,13.00
2011,07,09,00,16,13.00
2011,07,09,00,17,13.00
2011,07,09,00,18,13.00
2011,07,09,00,19,13.00
2011,07,09,00,20,13.00
2011,07,09,00,21,13.00
2011,07,09,00,22,13.00
2011,07,09,00,23,13.00
2011,07,09,00,24,13.00
2011,07,09,00,25,13.00
2011,07,09,00,26,13.10
2011,07,09,00,27,13.10
2011,07,09,00,28,13.10
2011,07,09,00,29,13.10
2011,07,09,00,30,13.10
2011,07,09,00,31,13.10
2011,07,09,00,32,13.10
2011,07,09,00,33,13.10
2011,07,09,00,34,13.10
2011,07,09,00,35,13.10
2011,07,09,00,36,13.10
2011,07,09,00,37,13.10
2011,07,09,00,38,13.10
2011,07,09,00,39,13.10
2011,07,09,00,40,13.10
2011,07,09,00,41,13.10
2011,07,09,00,42,13.20
2011,07,09,00,43,13.20
2011,07,09,00,44,13.20
2011,07,09,00,45,13.20
2011,07,09,00,46,13.20
2011,07,09,00,47,13.20
2011,07,09,00,48,13.20
2011,07,09,00,49,13.20
2011,07,09,00,50,13.20
2011,07,09,00,51,13.20
2011,07,09,00,52,13.20
2011,07,09,00,53,13.20
2011,07,09,00,54,13.20
2011,07,09,00,55,13.20
2011,07,09,00,56,13.20
2011,07,09,00,57,13.20
2011,07,09,00,58,13.20
2011,07,09,00,59,13.20
2011,07,09,01,00,13.20
2011,07,09,01,01,13.20
2011,07,09,01,02,13.20
2011,07,09,01,03,13.20
2011,07,09,01,04,13.20
2011,07,09,01,05,13.20
2011,07,09,01,06,13.20
2011,07,09,01,07,13.20
2011,07,09,01,08,13.20
2011,07,09,01,09,13.20
2011,07,09,01,10,13.20
2011,07,09,01,11,13.20
2011,07,09,01,12,13.20
2011,07,09,01,13,13.20
2011,07,09,01,14,13.20
2011,07,09,01,15,13.20
2011,07,09,01,16,13.20
2011,07,09,01,17,13.20
2011,07,09,01,18,13.20
2011,07,09,01,19,13.20
2011,07,09,01,20,13.20
2011,07,09,01,21,13.20
2011,07,09,01,22,13.20
2011,07,09,01,23,13.20
2011,07,09,01,24,13.20
2011,07,09,01,25,13.10
2011,07,09,01,26,13.10
2011,07,09,01,27,13.10
2011,07,09,01,28,13.10
2011,07,09,01,29,13.10
2011,07,09,01,30,13.10
2011,07,09,01,31,13.10
2011,07,09,01,32,13.10
2011,07,09,01,33,13.00
2011,07,09,01,34,13.00
2011,07,09,01,35,13.00
2011,07,09,01,36,13.00
2011,07,09,01,37,13.00
2011,07,09,01,38,12.90
2011,07,09,01,39,12.90
2011,07,09,01,40,12.90
2011,07,09,01,41,12.90
2011,07,09,01,42,12.90
2011,07,09,01,43,12.90
2011,07,09,01,44,12.90
2011,07,09,01,45,12.80
2011,07,09,01,46,12.80
2011,07,09,01,47,12.80
2011,07,09,01,48,12.80
2011,07,09,01,49,12.80
2011,07,09,01,50,12.80
2011,07,09,01,51,12.80
2011,07,09,01,52,12.80
2011,07,09,01,53,12.70
2011,07,09,01,54,12.70
2011,07,09,01,55,12.70
2011,07,09,01,56,12.70
2011,07,09,01,57,12.70
2011,07,09,01,58,12.70
2011,07,09,01,59,12.70
2011,07,09,02,00,12.70
2011,07,09,02,01,12.70
2011,07,09,02,02,12.70
2011,07,09,02,03,12.70
2011,07,09,02,04,12.70
2011,07,09,02,05,12.70
2011,07,09,02,06,12.70
2011,07,09,02,07,12.70
2011,07,09,02,08,12.70
2011,07,09,02,09,12.80
2011,07,09,02,10,12.80
2011,07,09,02,11,12.80
2011,07,09,02,12,12.80
2011,07,09,02,13,12.80
2011,07,09,02,14,12.80
2011,07,09,02,15,12.80
2011,07,09,02,16,12.80
2011,07,09,02,17,12.80
2011,07,09,02,18,12.80
2011,07,09,02,19,12.80
2011,07,09,02,20,12.80
2011,07,09,02,21,12.80
2011,07,09,02,22,12.80
2011,07,09,02,23,12.90
2011,07,09,02,24,12.90
2011,07,09,02,25,12.90
2011,07,09,02,26,12.90
2011,07,09,02,27,13.00
2011,07,09,02,28,13.00
2011,07,09,02,29,13.10
2011,07,09,02,30,13.20
2011,07,09,02,31,13.20
2011,07,09,02,32,13.20
2011,07,09,02,33,13.20
2011,07,09,02,34,13.30
2011,07,09,02,35,13.30
2011,07,09,02,36,13.30
2011,07,09,02,37,13.30
2011,07,09,02,38,13.30
2011,07,09,02,39,13.40
2011,07,09,02,40,13.40
2011,07,09,02,41,13.40
2011,07,09,02,42,13.40
2011,07,09,02,43,13.40
2011,07,09,02,44,13.40
2011,07,09,02,45,13.40
2011,07,09,02,46,13.40
2011,07,09,02,47,13.40
2011,07,09,02,48,13.40
2011,07,09,02,49,13.40
2011,07,09,02,50,13.40
2011,07,09,02,51,13.40
2011,07,09,02,52,13.40
2011,07,09,02,53,13.30
2011,07,09,02,54,13.30
2011,07,09,02,55,13.40
2011,07,09,02,56,13.40
2011,07,09,02,57,13.40
2011,07,09,02,58,13.40
2011,07,09,02,59,13.40
2011,07,09,03,00,13.40
2011,07,09,03,06,13.40
2011,07,09,03,07,13.40
2011,07,09,03,08,13.40
2011,07,09,03,09,13.40
2011,07,09,03,10,13.40
2011,07,09,03,11,13.40
2011,07,09,03,12,13.40
2011,07,09,03,13,13.30
2011,07,09,03,14,13.30
2011,07,09,03,15,13.30
2011,07,09,03,16,13.30
2011,07,09,03,17,13.30
2011,07,09,03,18,13.30
2011,07,09,03,19,13.30
2011,07,09,03,20,13.20
2011,07,09,03,21,13.20
2011,07,09,03,22,13.20
2011,07,09,03,23,13.20
2011,07,09,03,24,13.20
2011,07,09,03,25,13.20
2011,07,09,03,26,13.20
2011,07,09,03,27,13.10
2011,07,09,03,28,13.10
2011,07,09,03,29,13.10
2011,07,09,03,30,13.10
2011,07,09,03,31,13.10
2011,07,09,03,32,13.00
2011,07,09,03,33,13.00
2011,07,09,03,34,13.00
2011,07,09,03,35,12.90
2011,07,09,03,36,12.90
2011,07,09,03,37,12.90
2011,07,09,03,38,12.80
2011,07,09,03,39,12.80
2011,07,09,03,40,12.80
2011,07,09,03,41,12.80
2011,07,09,03,42,12.70
2011,07,09,03,43,12.70
2011,07,09,03,44,12.70
2011,07,09,03,45,12.70
2011,07,09,03,46,12.60
2011,07,09,03,47,12.60
2011,07,09,03,48,12.60
2011,07,09,03,49,12.60
2011,07,09,03,50,12.50
2011,07,09,03,51,12.50
2011,07,09,03,52,12.50
2011,07,09,03,53,12.50
2011,07,09,03,54,12.40
2011,07,09,03,55,12.40
2011,07,09,03,56,12.40
2011,07,09,03,57,12.40
2011,07,09,03,58,12.30
2011,07,09,03,59,12.30
2011,07,09,04,00,12.30
2011,07,09,04,01,12.30
2011,07,09,04,02,12.30
2011,07,09,04,03,12.20
2011,07,09,04,04,12.20
2011,07,09,04,05,12.20
2011,07,09,04,06,12.20
2011,07,09,04,07,12.20
2011,07,09,04,08,12.20
2011,07,09,04,09,12.10
2011,07,09,04,10,12.10
2011,07,09,04,11,12.10
2011,07,09,04,12,12.10
2011,07,09,04,13,12.10
2011,07,09,04,14,12.10
2011,07,09,04,15,12.10
2011,07,09,04,16,12.00
2011,07,09,04,17,12.00
2011,07,09,04,18,12.00
2011,07,09,04,19,12.00
2011,07,09,04,20,11.90
2011,07,09,04,21,11.90
2011,07,09,04,22,11.90
2011,07,09,04,23,11.90
2011,07,09,04,24,11.80
2011,07,09,04,25,11.80
2011,07,09,04,26,11.80
2011,07,09,04,27,11.80
2011,07,09,04,28,11.80
2011,07,09,04,29,11.70
2011,07,09,04,30,11.70
2011,07,09,04,31,11.70
2011,07,09,04,32,11.70
2011,07,09,04,33,11.70
2011,07,09,04,34,11.60
2011,07,09,04,35,11.60
2011,07,09,04,36,11.60
2011,07,09,04,37,11.60
2011,07,09,04,38,11.50
2011,07,09,04,39,11.50
2011,07,09,04,40,11.40
2011,07,09,04,41,11.40
2011,07,09,04,42,11.40
2011,07,09,04,43,11.40
2011,07,09,04,44,11.30
2011,07,09,04,45,11.30
2011,07,09,04,46,11.30
2011,07,09,04,47,11.30
2011,07,09,04,48,11.20
2011,07,09,04,49,11.20
2011,07,09,04,50,11.20
2011,07,09,04,51,11.20
2011,07,09,04,52,11.20
2011,07,09,04,53,11.10
2011,07,09,04,54,11.10
2011,07,09,04,55,11.10
2011,07,09,04,56,11.10
2011,07,09,04,57,11.00
2011,07,09,04,58,11.00
2011,07,09,04,59,11.00
2011,07,09,05,00,10.90
2011,07,09,05,01,10.90
2011,07,09,05,02,10.90
2011,07,09,05,03,10.80
2011,07,09,05,04,10.80
2011,07,09,05,05,10.80
2011,07,09,05,06,10.80
2011,07,09,05,07,10.70
2011,07,09,05,08,10.70
2011,07,09,05,09,10.70
2011,07,09,05,10,10.70
2011,07,09,05,11,10.70
2011,07,09,05,12,10.60
2011,07,09,05,13,10.60
2011,07,09,05,14,10.60
2011,07,09,05,15,10.60
2011,07,09,05,16,10.60
2011,07,09,05,17,10.50
2011,07,09,05,18,10.50
2011,07,09,05,19,10.50
2011,07,09,05,20,10.40
2011,07,09,05,21,10.40
2011,07,09,05,22,10.40
2011,07,09,05,23,10.40
2011,07,09,05,24,10.40
2011,07,09,05,25,10.30
2011,07,09,05,26,10.30
2011,07,09,05,27,10.30
2011,07,09,05,28,10.30
2011,07,09,05,29,10.30
2011,07,09,05,30,10.30
2011,07,09,05,31,10.30
2011,07,09,05,32,10.30
2011,07,09,05,33,10.30
2011,07,09,05,34,10.20
2011,07,09,05,35,10.20
2011,07,09,05,36,10.20
2011,07,09,05,37,10.20
2011,07,09,05,38,10.20
2011,07,09,05,39,10.20
2011,07,09,05,40,10.20
2011,07,09,05,41,10.20
2011,07,09,05,42,10.20
2011,07,09,05,43,10.10
2011,07,09,05,44,10.10
2011,07,09,05,45,10.10
2011,07,09,05,46,10.10
2011,07,09,05,47,10.10
2011,07,09,05,48,10.10
2011,07,09,05,49,10.10
2011,07,09,05,50,10.10
2011,07,09,05,51,10.10
2011,07,09,05,52,10.10
2011,07,09,05,53,10.10
2011,07,09,05,54,10.00
2011,07,09,05,55,10.10
2011,07,09,05,56,10.10
2011,07,09,05,57,10.10
2011,07,09,05,58,10.00
2011,07,09,05,59,10.00
2011,07,09,06,00,10.00
2011,07,09,06,01,10.00
2011,07,09,06,02,10.00
2011,07,09,06,03,10.00
2011,07,09,06,04,10.00
2011,07,09,06,05,10.00
2011,07,09,06,06,10.00
2011,07,09,06,07,10.00
2011,07,09,06,08,10.00
2011,07,09,06,09,10.00
2011,07,09,06,10,10.00
2011,07,09,06,11,10.00
2011,07,09,06,12,10.00
2011,07,09,06,13,10.00
2011,07,09,06,14,10.00
2011,07,09,06,15,10.00
2011,07,09,06,16,10.00
2011,07,09,06,17,10.00
2011,07,09,06,18,10.00
2011,07,09,06,19,10.00
2011,07,09,06,20,10.00
2011,07,09,06,21,10.00
2011,07,09,06,22,10.00
2011,07,09,06,23,10.00
2011,07,09,06,24,10.10
2011,07,09,06,25,10.10
2011,07,09,06,26,10.10
2011,07,09,06,27,10.10
2011,07,09,06,28,10.10
2011,07,09,06,29,10.10
2011,07,09,06,30,10.10
2011,07,09,06,31,10.10
2011,07,09,06,32,10.10
2011,07,09,06,33,10.10
2011,07,09,06,34,10.20
2011,07,09,06,35,10.20
2011,07,09,06,36,10.20
2011,07,09,06,37,10.20
2011,07,09,06,38,10.20
2011,07,09,06,39,10.20
2011,07,09,06,40,10.20
2011,07,09,06,41,10.20
2011,07,09,06,42,10.20
2011,07,09,06,43,10.30
2011,07,09,06,44,10.30
2011,07,09,06,45,10.30
2011,07,09,06,46,10.30
2011,07,09,06,47,10.30
2011,07,09,06,48,10.30
2011,07,09,06,49,10.30
2011,07,09,06,50,10.40
2011,07,09,06,51,10.40
2011,07,09,06,52,10.40
2011,07,09,06,53,10.40
2011,07,09,06,54,10.40
2011,07,09,06,55,10.40
2011,07,09,06,56,10.50
2011,07,09,06,57,10.50
2011,07,09,06,58,10.50
2011,07,09,06,59,10.60
2011,07,09,07,00,10.60
2011,07,09,07,01,10.60
2011,07,09,07,02,10.70
2011,07,09,07,03,10.70
2011,07,09,07,04,10.70
2011,07,09,07,05,10.70
2011,07,09,07,06,10.80
2011,07,09,07,07,10.80
2011,07,09,07,08,10.80
2011,07,09,07,09,10.90
2011,07,09,07,10,10.90
2011,07,09,07,11,10.90
2011,07,09,07,12,11.00
2011,07,09,07,13,11.00
2011,07,09,07,14,11.10
2011,07,09,07,15,11.10
2011,07,09,07,16,11.10
2011,07,09,07,17,11.20
2011,07,09,07,18,11.20
2011,07,09,07,19,11.20
2011,07,09,07,20,11.20
2011,07,09,07,21,11.30
2011,07,09,07,22,11.30
2011,07,09,07,23,11.30
2011,07,09,07,24,11.30
2011,07,09,07,25,11.30
2011,07,09,07,26,11.40
2011,07,09,07,27,11.40
2011,07,09,07,28,11.50
2011,07,09,07,29,11.50
2011,07,09,07,30,11.60
2011,07,09,07,31,11.60
2011,07,09,07,32,11.60
2011,07,09,07,33,11.60
2011,07,09,07,34,11.70
2011,07,09,07,35,11.70
2011,07,09,07,36,11.70
2011,07,09,07,37,11.80
2011,07,09,07,38,11.90
2011,07,09,07,39,12.00
2011,07,09,07,40,12.10
2011,07,09,07,41,12.20
2011,07,09,07,42,12.40
2011,07,09,07,43,12.50
2011,07,09,07,44,12.60
2011,07,09,07,45,12.70
2011,07,09,07,46,12.80
2011,07,09,07,47,12.90
2011,07,09,07,48,13.00
2011,07,09,07,49,13.10
2011,07,09,07,50,13.20
2011,07,09,07,51,13.20
2011,07,09,07,52,13.30
2011,07,09,07,53,13.40
2011,07,09,07,54,13.40
2011,07,09,07,55,13.50
2011,07,09,07,56,13.60
2011,07,09,07,57,13.60
2011,07,09,07,58,13.60
2011,07,09,07,59,13.70
2011,07,09,08,00,13.70
2011,07,09,08,01,13.70
2011,07,09,08,02,13.80
2011,07,09,08,03,13.80
2011,07,09,08,04,13.80
2011,07,09,08,05,13.90
2011,07,09,08,06,13.90
2011,07,09,08,07,13.90
2011,07,09,08,08,13.90
2011,07,09,08,09,13.90
2011,07,09,08,10,13.90
2011,07,09,08,11,13.90
2011,07,09,08,12,13.90
2011,07,09,08,13,14.00
2011,07,09,08,14,14.00
2011,07,09,08,15,14.10
2011,07,09,08,16,14.10
2011,07,09,08,17,14.10
2011,07,09,08,18,14.10
2011,07,09,08,19,14.20
2011,07,09,08,20,14.20
2011,07,09,08,21,14.20
2011,07,09,08,22,14.20
2011,07,09,08,23,14.20
2011,07,09,08,24,14.30
2011,07,09,08,25,14.30
2011,07,09,08,26,14.30
2011,07,09,08,27,14.40
2011,07,09,08,28,14.40
2011,07,09,08,29,14.40
2011,07,09,08,30,14.40
2011,07,09,08,31,14.40
2011,07,09,08,32,14.40
2011,07,09,08,33,14.50
2011,07,09,08,34,14.50
2011,07,09,08,35,14.50
2011,07,09,08,36,14.50
2011,07,09,08,37,14.50
2011,07,09,08,38,14.50
2011,07,09,08,39,14.60
2011,07,09,08,40,14.60
2011,07,09,08,41,14.60
2011,07,09,08,42,14.60
2011,07,09,08,43,14.60
2011,07,09,08,44,14.60
2011,07,09,08,45,14.60
2011,07,09,08,46,14.60
2011,07,09,08,47,14.60
2011,07,09,08,48,14.70
2011,07,09,08,49,14.70
2011,07,09,08,50,14.70
2011,07,09,08,51,14.70
2011,07,09,08,52,14.80
2011,07,09,08,53,14.80
2011,07,09,08,54,14.80
2011,07,09,08,55,14.80
2011,07,09,08,56,14.80
2011,07,09,08,57,14.80
2011,07,09,08,58,14.80
2011,07,09,08,59,14.80
2011,07,09,09,00,14.90
2011,07,09,09,01,14.90
2011,07,09,09,02,14.90
2011,07,09,09,03,14.90
2011,07,09,09,04,14.90
2011,07,09,09,05,14.90
2011,07,09,09,06,14.80
2011,07,09,09,07,14.80
2011,07,09,09,08,14.90
2011,07,09,09,09,14.90
2011,07,09,09,10,14.90
2011,07,09,09,11,14.90
2011,07,09,09,12,14.90
2011,07,09,09,13,15.00
2011,07,09,09,14,15.00
2011,07,09,09,15,15.00
2011,07,09,09,16,15.10
2011,07,09,09,17,15.10
2011,07,09,09,18,15.10
2011,07,09,09,19,15.20
2011,07,09,09,20,15.20
2011,07,09,09,21,15.20
2011,07,09,09,22,15.20
2011,07,09,09,23,15.20
2011,07,09,09,24,15.10
2011,07,09,09,25,15.10
2011,07,09,09,26,15.10
2011,07,09,09,27,15.10
2011,07,09,09,28,15.10
2011,07,09,09,29,15.20
2011,07,09,09,30,15.20
2011,07,09,09,31,15.20
2011,07,09,09,32,15.20
2011,07,09,09,33,15.10
2011,07,09,09,34,15.10
2011,07,09,09,35,15.10
2011,07,09,09,36,15.00
2011,07,09,09,37,15.00
2011,07,09,09,38,15.00
2011,07,09,09,39,15.00
2011,07,09,09,40,14.90
2011,07,09,09,41,14.90
2011,07,09,09,42,15.00
2011,07,09,09,43,15.00
2011,07,09,09,44,15.10
2011,07,09,09,45,15.10
2011,07,09,09,46,15.10
2011,07,09,09,47,15.10
2011,07,09,09,48,15.20
2011,07,09,09,49,15.20
2011,07,09,09,50,15.20
2011,07,09,09,51,15.10
2011,07,09,09,52,15.20
2011,07,09,09,53,15.20
2011,07,09,09,54,15.20
2011,07,09,09,55,15.20
2011,07,09,09,56,15.20
2011,07,09,09,57,15.20
2011,07,09,09,58,15.20
2011,07,09,09,59,15.20
2011,07,09,10,00,15.30
2011,07,09,10,01,15.40
2011,07,09,10,02,15.50
2011,07,09,10,03,15.50
2011,07,09,10,04,15.60
2011,07,09,10,05,15.60
2011,07,09,10,06,15.60
2011,07,09,10,07,15.60
2011,07,09,10,08,15.60
2011,07,09,10,09,15.60
2011,07,09,10,10,15.60
2011,07,09,10,11,15.50
2011,07,09,10,12,15.50
2011,07,09,10,13,15.40
2011,07,09,10,14,15.40
2011,07,09,10,15,15.30
2011,07,09,10,16,15.30
2011,07,09,10,17,15.30
2011,07,09,10,18,15.40
2011,07,09,10,19,15.40
2011,07,09,10,20,15.50
2011,07,09,10,21,15.60
2011,07,09,10,22,15.60
2011,07,09,10,23,15.70
2011,07,09,10,24,15.80
2011,07,09,10,25,15.90
2011,07,09,10,26,15.90
2011,07,09,10,27,15.90
2011,07,09,10,28,15.90
2011,07,09,10,29,15.90
2011,07,09,10,30,16.00
2011,07,09,10,31,16.00
2011,07,09,10,32,16.00
2011,07,09,10,33,16.00
2011,07,09,10,34,16.00
2011,07,09,10,35,15.90
2011,07,09,10,36,15.90
2011,07,09,10,37,15.90
2011,07,09,10,38,16.00
2011,07,09,10,39,16.00
2011,07,09,10,40,16.10
2011,07,09,10,41,16.10
2011,07,09,10,42,16.10
2011,07,09,10,43,16.10
2011,07,09,10,44,16.10
2011,07,09,10,45,16.10
2011,07,09,10,46,16.20
2011,07,09,10,47,16.20
2011,07,09,10,48,16.30
2011,07,09,10,49,16.30
2011,07,09,10,50,16.20
2011,07,09,10,51,16.20
2011,07,09,10,52,16.20
2011,07,09,10,53,16.20
2011,07,09,10,54,16.30
2011,07,09,10,55,16.30
2011,07,09,10,56,16.30
2011,07,09,10,57,16.40
2011,07,09,10,58,16.40
2011,07,09,10,59,16.50
2011,07,09,11,00,16.60
2011,07,09,11,01,16.60
2011,07,09,11,02,16.60
2011,07,09,11,03,16.60
2011,07,09,11,04,16.60
2011,07,09,11,05,16.70
2011,07,09,11,06,16.70
2011,07,09,11,07,16.70
2011,07,09,11,08,16.80
2011,07,09,11,09,16.80
2011,07,09,11,10,16.70
2011,07,09,11,11,16.80
2011,07,09,11,12,16.80
2011,07,09,11,13,16.80
2011,07,09,11,14,16.80
2011,07,09,11,15,16.70
2011,07,09,11,16,16.70
2011,07,09,11,17,16.80
2011,07,09,11,18,16.80
2011,07,09,11,19,16.80
2011,07,09,11,20,16.80
2011,07,09,11,21,16.90
2011,07,09,11,22,17.00
2011,07,09,11,23,17.10
2011,07,09,11,24,17.20
2011,07,09,11,25,17.30
2011,07,09,11,26,17.30
2011,07,09,11,27,17.40
2011,07,09,11,28,17.40
2011,07,09,11,29,17.30
2011,07,09,11,30,17.30
2011,07,09,11,31,17.30
2011,07,09,11,32,17.30
2011,07,09,11,33,17.30
2011,07,09,11,34,17.30
2011,07,09,11,35,17.30
2011,07,09,11,36,17.40
2011,07,09,11,37,17.40
2011,07,09,11,38,17.40
2011,07,09,11,39,17.30
2011,07,09,11,40,17.30
2011,07,09,11,41,17.30
2011,07,09,11,42,17.20
2011,07,09,11,43,17.10
2011,07,09,11,44,17.10
2011,07,09,11,45,17.00
2011,07,09,11,46,17.00
2011,07,09,11,47,16.90
2011,07,09,11,48,16.90
2011,07,09,11,49,16.80
2011,07,09,11,50,16.80
2011,07,09,11,51,16.80
2011,07,09,11,52,16.90
2011,07,09,11,53,17.00
2011,07,09,11,54,17.00
2011,07,09,11,55,17.00
2011,07,09,11,56,17.10
2011,07,09,11,57,17.20
2011,07,09,11,58,17.30
2011,07,09,11,59,17.30
2011,07,09,12,00,17.40
2011,07,09,12,01,17.40
2011,07,09,12,02,17.40
2011,07,09,12,03,17.40
2011,07,09,12,04,17.40
2011,07,09,12,05,17.40
2011,07,09,12,06,17.50
2011,07,09,12,07,17.50
2011,07,09,12,08,17.60
2011,07,09,12,09,17.80
2011,07,09,12,10,17.90
2011,07,09,12,11,18.00
2011,07,09,12,12,18.10
2011,07,09,12,13,18.10
2011,07,09,12,14,18.10
2011,07,09,12,15,18.10
2011,07,09,12,16,18.20
2011,07,09,12,17,18.20
2011,07,09,12,18,18.30
2011,07,09,12,19,18.40
2011,07,09,12,20,18.50
2011,07,09,12,21,18.70
2011,07,09,12,22,18.70
2011,07,09,12,23,18.70
2011,07,09,12,24,18.60
2011,07,09,12,25,18.50
2011,07,09,12,26,18.40
2011,07,09,12,27,18.30
2011,07,09,12,28,18.10
2011,07,09,12,29,18.00
2011,07,09,12,30,17.80
2011,07,09,12,31,17.80
2011,07,09,12,32,17.90
2011,07,09,12,33,18.00
2011,07,09,12,34,18.00
2011,07,09,12,35,18.10
2011,07,09,12,36,18.10
2011,07,09,12,37,18.30
2011,07,09,12,38,18.40
2011,07,09,12,39,18.60
2011,07,09,12,40,18.70
2011,07,09,12,41,19.00
2011,07,09,12,42,19.20
2011,07,09,12,43,19.40
2011,07,09,12,44,19.60
2011,07,09,12,45,19.80
2011,07,09,12,46,19.90
2011,07,09,12,47,19.90
2011,07,09,12,48,19.90
2011,07,09,12,49,19.90
2011,07,09,12,50,19.90
2011,07,09,12,51,19.90
2011,07,09,12,52,19.90
2011,07,09,12,53,20.00
2011,07,09,12,54,20.00
2011,07,09,12,55,20.10
2011,07,09,12,56,20.20
2011,07,09,12,57,20.30
2011,07,09,12,58,20.40
2011,07,09,12,59,20.40
2011,07,09,13,00,20.50
2011,07,09,13,01,20.50
2011,07,09,13,02,20.50
2011,07,09,13,03,20.50
2011,07,09,13,04,20.50
2011,07,09,13,05,20.60
2011,07,09,13,06,20.60
2011,07,09,13,07,20.60
2011,07,09,13,08,20.50
2011,07,09,13,09,20.40
2011,07,09,13,10,20.30
2011,07,09,13,11,20.20
2011,07,09,13,12,20.20
2011,07,09,13,13,20.20
2011,07,09,13,14,20.10
2011,07,09,13,15,20.10
2011,07,09,13,16,20.20
2011,07,09,13,17,20.20
2011,07,09,13,18,20.30
2011,07,09,13,19,20.30
2011,07,09,13,20,20.30
2011,07,09,13,21,20.30
2011,07,09,13,22,20.20
2011,07,09,13,23,20.10
2011,07,09,13,24,20.10
2011,07,09,13,25,20.10
2011,07,09,13,26,20.10
2011,07,09,13,27,20.00
2011,07,09,13,28,19.90
2011,07,09,13,29,19.90
2011,07,09,13,30,19.90
2011,07,09,13,31,19.80
2011,07,09,13,32,19.70
2011,07,09,13,33,19.80
2011,07,09,13,34,19.80
2011,07,09,13,35,19.80
2011,07,09,13,36,19.70
2011,07,09,13,37,19.70
2011,07,09,13,38,19.70
2011,07,09,13,39,19.70
2011,07,09,13,40,19.80
2011,07,09,13,41,19.80
2011,07,09,13,42,19.80
2011,07,09,13,43,19.90
2011,07,09,13,44,20.00
2011,07,09,13,45,20.10
2011,07,09,13,46,20.10
2011,07,09,13,47,20.20
2011,07,09,13,48,20.10
2011,07,09,13,49,20.10
2011,07,09,13,50,20.10
2011,07,09,13,51,20.00
2011,07,09,13,52,19.90
2011,07,09,13,53,19.90
2011,07,09,13,54,20.00
2011,07,09,13,55,20.10
2011,07,09,13,56,20.20
2011,07,09,13,57,20.30
2011,07,09,13,58,20.30
2011,07,09,13,59,20.40
2011,07,09,14,00,20.50
2011,07,09,14,01,20.70
2011,07,09,14,02,20.70
2011,07,09,14,03,20.50
2011,07,09,14,04,20.50
2011,07,09,14,05,20.50
2011,07,09,14,06,20.60
2011,07,09,14,07,20.70
2011,07,09,14,08,20.80
2011,07,09,14,09,20.80
2011,07,09,14,10,20.90
2011,07,09,14,11,20.90
2011,07,09,14,12,21.00
2011,07,09,14,13,21.10
2011,07,09,14,14,21.10
2011,07,09,14,15,21.20
2011,07,09,14,16,21.30
2011,07,09,14,17,21.40
2011,07,09,14,18,21.40
2011,07,09,14,19,21.50
2011,07,09,14,20,21.40
2011,07,09,14,21,21.40
2011,07,09,14,22,21.40
2011,07,09,14,23,21.40
2011,07,09,14,24,21.40
2011,07,09,14,25,21.40
2011,07,09,14,26,21.30
2011,07,09,14,27,21.30
2011,07,09,14,28,21.20
2011,07,09,14,29,21.00
2011,07,09,14,30,21.00
2011,07,09,14,31,20.90
2011,07,09,14,32,20.90
2011,07,09,14,33,20.90
2011,07,09,14,34,20.90
2011,07,09,14,35,21.00
2011,07,09,14,36,21.10
2011,07,09,14,37,21.20
2011,07,09,14,38,21.20
2011,07,09,14,39,21.20
2011,07,09,14,40,21.20
2011,07,09,14,41,21.30
2011,07,09,14,42,21.30
2011,07,09,14,43,21.30
2011,07,09,14,44,21.20
2011,07,09,14,45,21.20
2011,07,09,14,46,21.20
2011,07,09,14,47,21.20
2011,07,09,14,48,21.10
2011,07,09,14,49,21.20
2011,07,09,14,50,21.20
2011,07,09,14,51,21.30
2011,07,09,14,52,21.30
2011,07,09,14,53,21.40
2011,07,09,14,54,21.40
2011,07,09,14,55,21.50
2011,07,09,14,56,21.60
2011,07,09,14,57,21.60
2011,07,09,14,58,21.70
2011,07,09,14,59,21.80
2011,07,09,15,00,21.90
2011,07,09,15,01,22.00
2011,07,09,15,02,22.10
2011,07,09,15,03,22.20
2011,07,09,15,04,22.30
2011,07,09,15,05,22.30
2011,07,09,15,06,22.40
2011,07,09,15,07,22.40
2011,07,09,15,08,22.50
2011,07,09,15,09,22.60
2011,07,09,15,10,22.60
2011,07,09,15,11,22.70
2011,07,09,15,12,22.70
2011,07,09,15,13,22.70
2011,07,09,15,14,22.70
2011,07,09,15,15,22.70
2011,07,09,15,16,22.80
2011,07,09,15,17,22.80
2011,07,09,15,18,22.80
2011,07,09,15,19,22.80
2011,07,09,15,20,22.80
2011,07,09,15,21,22.80
2011,07,09,15,22,22.80
2011,07,09,15,23,22.90
2011,07,09,15,24,22.90
2011,07,09,15,25,22.90
2011,07,09,15,26,22.90
2011,07,09,15,27,22.90
2011,07,09,15,28,22.90
2011,07,09,15,29,22.90
2011,07,09,15,30,22.90
2011,07,09,15,31,22.90
2011,07,09,15,32,22.90
2011,07,09,15,33,22.90
2011,07,09,15,34,23.00
2011,07,09,15,35,23.10
2011,07,09,15,36,23.00
2011,07,09,15,37,23.00
2011,07,09,15,38,22.80
2011,07,09,15,39,22.70
2011,07,09,15,40,22.70
2011,07,09,15,41,22.60
2011,07,09,15,42,22.60
2011,07,09,15,43,22.50
2011,07,09,15,44,22.50
2011,07,09,15,45,22.50
2011,07,09,15,46,22.50
2011,07,09,15,47,22.50
2011,07,09,15,48,22.60
2011,07,09,15,49,22.60
2011,07,09,15,50,22.70
2011,07,09,15,51,22.70
2011,07,09,15,52,22.80
2011,07,09,15,53,22.80
2011,07,09,15,54,22.80
2011,07,09,15,55,22.90
2011,07,09,15,56,22.90
2011,07,09,15,57,22.90
2011,07,09,15,58,22.80
2011,07,09,15,59,22.80
2011,07,09,16,00,22.70
2011,07,09,16,01,22.70
2011,07,09,16,02,22.60
2011,07,09,16,03,22.50
2011,07,09,16,04,22.50
2011,07,09,16,05,22.50
2011,07,09,16,06,22.40
2011,07,09,16,07,22.40
2011,07,09,16,08,22.40
2011,07,09,16,09,22.40
2011,07,09,16,10,22.40
2011,07,09,16,11,22.40
2011,07,09,16,12,22.40
2011,07,09,16,13,22.40
2011,07,09,16,14,22.50
2011,07,09,16,15,22.50
2011,07,09,16,16,22.50
2011,07,09,16,17,22.60
2011,07,09,16,18,22.60
2011,07,09,16,19,22.60
2011,07,09,16,20,22.70
2011,07,09,16,21,22.70
2011,07,09,16,22,22.70
2011,07,09,16,23,22.70
2011,07,09,16,24,22.70
2011,07,09,16,25,22.70
2011,07,09,16,26,22.70
2011,07,09,16,27,22.60
2011,07,09,16,28,22.60
2011,07,09,16,29,22.50
2011,07,09,16,30,22.50
2011,07,09,16,31,22.40
2011,07,09,16,32,22.40
2011,07,09,16,33,22.30
2011,07,09,16,34,22.30
2011,07,09,16,35,22.40
2011,07,09,16,36,22.40
2011,07,09,16,37,22.30
2011,07,09,16,38,22.30
2011,07,09,16,39,22.30
2011,07,09,16,40,22.20
2011,07,09,16,41,22.10
2011,07,09,16,42,22.10
2011,07,09,16,43,22.10
2011,07,09,16,44,22.10
2011,07,09,16,45,22.10
2011,07,09,16,46,22.10
2011,07,09,16,47,22.20
2011,07,09,16,48,22.20
2011,07,09,16,49,22.10
2011,07,09,16,50,22.10
2011,07,09,16,51,22.10
2011,07,09,16,52,22.10
2011,07,09,16,53,22.10
2011,07,09,16,54,22.20
2011,07,09,16,55,22.20
2011,07,09,16,56,22.30
2011,07,09,16,57,22.30
2011,07,09,16,58,22.30
2011,07,09,16,59,22.30
2011,07,09,17,00,22.30
2011,07,09,17,01,22.30
2011,07,09,17,02,22.20
2011,07,09,17,03,22.20
2011,07,09,17,04,22.20
2011,07,09,17,05,22.20
2011,07,09,17,06,22.20
2011,07,09,17,07,22.20
2011,07,09,17,08,22.30
2011,07,09,17,09,22.30
2011,07,09,17,10,22.30
2011,07,09,17,11,22.40
2011,07,09,17,12,22.40
2011,07,09,17,13,22.40
2011,07,09,17,14,22.40
2011,07,09,17,15,22.40
2011,07,09,17,16,22.50
2011,07,09,17,17,22.50
2011,07,09,17,18,22.50
2011,07,09,17,19,22.50
2011,07,09,17,20,22.60
2011,07,09,17,21,22.50
2011,07,09,17,22,22.50
2011,07,09,17,23,22.50
2011,07,09,17,24,22.50